| time (UTC) | temp C | wind direction | speed KPH | gust KPH | rain 1hr cm | rain 24hr cm | rain mn cm | humidity % | barometer mb |
| 20260902003021 | 20 | 76 | 0.0 | 0.0 | 0.00 | 0.00 | 0.00 | 40 | 1015.4 |
| 20260902001511 | 19 | 76 | 0.0 | 1.6 | 0.00 | 0.00 | 0.00 | 44 | 1015.3 |
| 20260902000008 | 20 | 123 | 0.0 | 1.6 | 0.00 | 0.00 | 0.00 | 43 | 1015.3 |
| 20260901234506 | 21 | 123 | 0.0 | 4.8 | 0.00 | 0.00 | 0.00 | 39 | 1015.4 |
| 20260901233004 | 20 | 224 | 0.0 | 0.0 | 0.00 | 0.00 | 0.00 | 42 | 1015.3 |
| 20260901231504 | 21 | 224 | 0.0 | 1.6 | 0.00 | 0.00 | 0.00 | 43 | 1015.1 |
| 20260901230107 | 21 | 224 | 0.0 | 1.6 | 0.00 | 0.00 | 0.00 | 41 | 1015.1 |
| 20260901230001 | 21 | 224 | 0.0 | 1.6 | 0.00 | 0.00 | 0.00 | 41 | 1015.1 |
| 20260901224658 | 21 | 224 | 0.0 | 1.6 | 0.00 | 0.00 | 0.00 | 40 | 1014.9 |
| 20260901223104 | 22 | 206 | 0.0 | 0.0 | 0.00 | 0.00 | 0.00 | 37 | 1014.7 |
| 20260901221551 | 22 | 194 | 0.0 | 0.0 | 0.00 | 0.00 | 0.00 | 36 | 1014.7 |
| 20260901220106 | 23 | 260 | 0.0 | 0.0 | 0.00 | 0.00 | 0.00 | 35 | 1014.6 |
| 20260901214547 | 24 | 260 | 0.0 | 0.0 | 0.00 | 0.00 | 0.00 | 33 | 1014.5 |
| 20260901213050 | 25 | 260 | 0.0 | 0.0 | 0.00 | 0.00 | 0.00 | 33 | 1014.5 |
| 20260901211546 | 25 | 263 | 0.0 | 1.6 | 0.00 | 0.00 | 0.00 | 32 | 1014.4 |
| 20260901210045 | 25 | 265 | 0.0 | 3.2 | 0.00 | 0.00 | 0.00 | 31 | 1014.3 |
| 20260901204544 | 25 | 290 | 0.0 | 3.2 | 0.00 | 0.00 | 0.00 | 31 | 1014.3 |
| 20260901203046 | 26 | 268 | 0.0 | 4.8 | 0.00 | 0.00 | 0.00 | 31 | 1014.1 |
| 20260901201552 | 26 | 270 | 0.0 | 1.6 | 0.00 | 0.00 | 0.00 | 30 | 1013.8 |
| 20260901200044 | 27 | 278 | 0.0 | 1.6 | 0.00 | 0.00 | 0.00 | 29 | 1013.5 |
| 20260901194542 | 27 | 266 | 0.0 | 1.6 | 0.00 | 0.00 | 0.00 | 28 | 1013.3 |
| 20260901193043 | 27 | 265 | 0.0 | 1.6 | 0.00 | 0.00 | 0.00 | 27 | 1013.0 |
| 20260901191602 | 28 | 262 | 0.0 | 1.6 | 0.00 | 0.00 | 0.00 | 27 | 1012.9 |
| 20260901190042 | 28 | 297 | 0.0 | 3.2 | 0.00 | 0.00 | 0.00 | 26 | 1012.8 |
| 20260901184605 | 29 | 278 | 0.0 | 6.4 | 0.00 | 0.00 | 0.00 | 24 | 1012.6 |
| 20260901183042 | 30 | 281 | 1.6 | 6.4 | 0.00 | 0.00 | 0.00 | 24 | 1012.4 |
| 20260901181551 | 31 | 281 | 3.2 | 8.0 | 0.00 | 0.00 | 0.00 | 25 | 1012.4 |
| 20260901180037 | 30 | 263 | 0.0 | 4.8 | 0.00 | 0.00 | 0.00 | 25 | 1012.3 |
| 20260901174551 | 31 | 281 | 1.6 | 11.3 | 0.00 | 0.00 | 0.00 | 24 | 1012.1 |
| 20260901173036 | 32 | 275 | 0.0 | 12.9 | 0.00 | 0.00 | 0.00 | 23 | 1012.2 |
| 20260901171540 | 32 | 238 | 4.8 | 14.5 | 0.00 | 0.00 | 0.00 | 22 | 1012.1 |
| 20260901170034 | 32 | 280 | 3.2 | 14.5 | 0.00 | 0.00 | 0.00 | 23 | 1012.0 |
| 20260901164539 | 31 | 305 | 4.8 | 12.9 | 0.00 | 0.00 | 0.00 | 23 | 1012.0 |
| 20260901163032 | 32 | 259 | 0.0 | 11.3 | 0.00 | 0.00 | 0.00 | 26 | 1012.1 |
| 20260901161532 | 32 | 284 | 3.2 | 11.3 | 0.00 | 0.00 | 0.00 | 25 | 1012.1 |
| 20260901160042 | 33 | 238 | 1.6 | 14.5 | 0.00 | 0.00 | 0.00 | 26 | 1012.1 |
| 20260901154533 | 33 | 273 | 3.2 | 17.7 | 0.00 | 0.00 | 0.00 | 26 | 1012.2 |
| 20260901153027 | 32 | 225 | 1.6 | 14.5 | 0.00 | 0.00 | 0.00 | 27 | 1012.2 |
| 20260901151528 | 32 | 334 | 3.2 | 12.9 | 0.00 | 0.00 | 0.00 | 26 | 1012.3 |
| 20260901150027 | 32 | 232 | 6.4 | 16.1 | 0.00 | 0.00 | 0.00 | 27 | 1012.5 |
| 20260901144523 | 32 | 264 | 6.4 | 19.3 | 0.00 | 0.00 | 0.00 | 26 | 1012.5 |
| 20260901143138 | 32 | 200 | 4.8 | 11.3 | 0.00 | 0.00 | 0.00 | 29 | 1012.5 |
| 20260901141518 | 32 | 259 | 0.0 | 8.0 | 0.00 | 0.00 | 0.00 | 29 | 1012.7 |
| 20260901140015 | 32 | 247 | 3.2 | 9.7 | 0.00 | 0.00 | 0.00 | 30 | 1012.9 |
| 20260901134519 | 31 | 255 | 3.2 | 14.5 | 0.00 | 0.00 | 0.00 | 32 | 1013.1 |
| 20260901133011 | 31 | 269 | 8.0 | 14.5 | 0.00 | 0.00 | 0.00 | 31 | 1013.2 |
| 20260901131513 | 31 | 224 | 1.6 | 8.0 | 0.00 | 0.00 | 0.00 | 34 | 1013.3 |
| 20260901130008 | 31 | 316 | 3.2 | 20.9 | 0.00 | 0.00 | 0.00 | 34 | 1013.5 |
| 20260901124513 | 30 | 328 | 3.2 | 12.9 | 0.00 | 0.00 | 0.00 | 36 | 1013.4 |
| 20260901123008 | 30 | 227 | 3.2 | 17.7 | 0.00 | 0.00 | 0.00 | 37 | 1013.6 |
| 20260901121601 | 30 | 154 | 1.6 | 8.0 | 0.00 | 0.00 | 0.00 | 39 | 1013.7 |
| 20260901114559 | 29 | 102 | 3.2 | 9.7 | 0.00 | 0.00 | 0.00 | 42 | 1014.0 |
| 20260901113059 | 28 | 122 | 1.6 | 6.4 | 0.00 | 0.00 | 0.00 | 44 | 1014.0 |
| 20260901111604 | 27 | 67 | 3.2 | 9.7 | 0.00 | 0.00 | 0.00 | 49 | 1014.3 |
| 20260901110049 | 27 | 81 | 1.6 | 6.4 | 0.00 | 0.00 | 0.00 | 47 | 1014.4 |
| 20260901104549 | 26 | 115 | 3.2 | 8.0 | 0.00 | 0.00 | 0.00 | 50 | 1014.5 |
| 20260901103044 | 26 | 104 | 3.2 | 14.5 | 0.00 | 0.00 | 0.00 | 52 | 1014.5 |
| 20260901101541 | 26 | 191 | 1.6 | 11.3 | 0.00 | 0.00 | 0.00 | 55 | 1014.7 |
| 20260901100046 | 25 | 82 | 6.4 | 11.3 | 0.00 | 0.00 | 0.00 | 57 | 1014.8 |
| 20260901094538 | 25 | 127 | 1.6 | 9.7 | 0.00 | 0.00 | 0.00 | 57 | 1014.8 |
| 20260901093036 | 24 | 155 | 1.6 | 11.3 | 0.00 | 0.00 | 0.00 | 59 | 1014.8 |
| 20260901091534 | 23 | 61 | 1.6 | 11.3 | 0.00 | 0.00 | 0.00 | 60 | 1014.9 |
| 20260901090034 | 23 | 95 | 1.6 | 6.4 | 0.00 | 0.00 | 0.00 | 59 | 1015.0 |
| 20260901084531 | 23 | 158 | 1.6 | 6.4 | 0.00 | 0.00 | 0.00 | 58 | 1015.0 |
| 20260901083031 | 23 | 147 | 1.6 | 6.4 | 0.00 | 0.00 | 0.00 | 60 | 1015.0 |
| 20260901081529 | 22 | 121 | 1.6 | 8.0 | 0.00 | 0.00 | 0.00 | 61 | 1015.0 |
| 20260901080028 | 22 | 146 | 0.0 | 4.8 | 0.00 | 0.00 | 0.00 | 58 | 1014.9 |
| 20260901074526 | 21 | 114 | 3.2 | 6.4 | 0.00 | 0.00 | 0.00 | 55 | 1014.9 |
| 20260901073028 | 21 | 115 | 1.6 | 4.8 | 0.00 | 0.00 | 0.00 | 55 | 1014.9 |
| 20260901071523 | 21 | 106 | 0.0 | 1.6 | 0.00 | 0.00 | 0.00 | 56 | 1014.9 |
| 20260901070022 | 20 | 98 | 0.0 | 1.6 | 0.00 | 0.00 | 0.00 | 58 | 1014.7 |
| 20260901064525 | 18 | 53 | 0.0 | 1.6 | 0.00 | 0.00 | 0.00 | 61 | 1014.7 |
| 20260901063030 | 18 | 158 | 0.0 | 0.0 | 0.00 | 0.00 | 0.00 | 61 | 1014.7 |
| 20260901061519 | -17 | 0.0 | 0.0 | 0.00 | 0.00 | 0.00 | 1014.7 | ||
| 20260901060011 | -17 | 0.0 | 0.0 | 0.00 | 0.00 | 0.00 | 1014.6 | ||
| 20260901054506 | -17 | 0.0 | 0.0 | 0.00 | 0.00 | 0.00 | 1014.5 | ||
| 20260901053001 | -17 | 0.0 | 0.0 | 0.00 | 0.00 | 0.00 | 1014.4 | ||
| 20260901051557 | -17 | 0.0 | 0.0 | 0.00 | 0.00 | 0.00 | 1014.2 | ||
| 20260901050054 | 18 | 214 | 0.0 | 1.6 | 0.00 | 0.00 | 0.00 | 60 | 1014.3 |
| 20260901044559 | 18 | 85 | 0.0 | 0.0 | 0.00 | 0.00 | 0.00 | 60 | 1014.0 |
| 20260901043049 | 18 | 85 | 0.0 | 0.0 | 0.00 | 0.00 | 0.00 | 57 | 1014.1 |
| 20260901041544 | 19 | 85 | 0.0 | 0.0 | 0.00 | 0.00 | 0.00 | 56 | 1013.9 |
| 20260901040047 | 20 | 84 | 0.0 | 3.2 | 0.00 | 0.00 | 0.00 | 54 | 1013.9 |
| 20260901034542 | 20 | 109 | 0.0 | 1.6 | 0.00 | 0.00 | 0.00 | 53 | 1013.9 |
| 20260901033041 | 20 | 109 | 0.0 | 1.6 | 0.00 | 0.00 | 0.00 | 53 | 1013.8 |
| 20260901031540 | 20 | 109 | 0.0 | 1.6 | 0.00 | 0.00 | 0.00 | 53 | 1013.7 |
| 20260901030040 | 20 | 109 | 0.0 | 1.6 | 0.00 | 0.00 | 0.00 | 53 | 1013.7 |
| 20260901024637 | 20 | 108 | 0.0 | 4.8 | 0.00 | 0.00 | 0.00 | 51 | 1013.6 |
| 20260901023041 | 20 | 98 | 0.0 | 3.2 | 0.00 | 0.00 | 0.00 | 50 | 1013.7 |
| 20260901021541 | 21 | 82 | 0.0 | 6.4 | 0.00 | 0.00 | 0.00 | 49 | 1013.8 |
| 20260901020041 | 21 | 96 | 0.0 | 4.8 | 0.00 | 0.00 | 0.00 | 48 | 1013.7 |
| 20260901014531 | 21 | 84 | 3.2 | 4.8 | 0.00 | 0.00 | 0.00 | 47 | 1013.7 |
| 20260901013031 | 21 | 109 | 0.0 | 3.2 | 0.00 | 0.00 | 0.00 | 46 | 1013.6 |
| 20260901011531 | 21 | 91 | 0.0 | 3.2 | 0.00 | 0.00 | 0.00 | 45 | 1013.8 |
| 20260901010030 | 21 | 52 | 0.0 | 1.6 | 0.00 | 0.00 | 0.00 | 44 | 1013.8 |
| 20260901004529 | 21 | 29 | 0.0 | 3.2 | 0.00 | 0.00 | 0.00 | 43 | 1013.9 |